Regional Weather Roundup
Issued by NWS Cleveland, OH

Home | Current Version | Previous Version | Graphics & Text | Print | Product List | Glossary On
Versions: 1 2 3 4 5 6 7 8 9 10 11 12 13 14 15 16 17 18 19 20 21 22 23 24 25 26 27 28 29 30 31 32 33 34 35 36 37 38 39 40 41 42 43 44 45 46 47 48 49 50
000
ASUS41 KCLE 230410
RWRCLE
OHIO REGIONAL WEATHER ROUNDUP
NATIONAL WEATHER SERVICE WILMINGTON, OH
1200 AM EDT WED MAY 23 2018

NOTE: "FAIR" INDICATES FEW OR NO CLOUDS BELOW 12,000 FEET WITH NO
SIGNIFICANT WEATHER AND/OR OBSTRUCTIONS TO VISIBILITY.

OHZ001>008-015>018-024>027-034-035-043-044-230500-
   NORTHWEST OHIO

CITY           SKY/WX    TMP DP  RH WIND       PRES   REMARKS
DEFIANCE       FAIR      62  55  77 N5        30.07R
FINDLAY        CLOUDY    65  57  75 N10       30.04R
TOLEDO EXPRESS FAIR      61  59  93 N8        30.05R
TOLEDO EXEC    FAIR      62  54  74 N7        30.07R
LIMA           CLOUDY    65  59  81 N10       30.05S
$$

OHZ009>014-019>023-028>033-038-089-230500-
   NORTHEAST OHIO

CITY           SKY/WX    TMP DP  RH WIND       PRES   REMARKS
CLE-HOPKINS    CLOUDY    61  57  87 N8        30.06R
CLE-LAKEFRONT  CLOUDY    58  55  90 N7        30.03R
CUY CO. ARPT   NOT AVBL
LORAIN-ELYRIA  CLOUDY    61  53  75 N9        30.05R
ASHTABULA      CLOUDY    57  55  93 N7        30.03R
AKRON-CANTON   CLOUDY    64  60  87 N7        30.02R FOG
WOOSTER        CLOUDY    64  62  93 N5        30.03R FOG
MANSFIELD      CLOUDY    63  60  90 N9        30.04R
YOUNGSTOWN     MOCLDY    62  59  90 CALM      30.01R FOG
$$

OHZ042-051>053-060>062-070>072-077>081-230500-
  SOUTHWEST OHIO

CITY           SKY/WX    TMP DP  RH WIND       PRES   REMARKS
CINC-COVINGTON MOCLDY    72  64  76 NW8       30.03R
CINC-LUNKEN    FAIR      67  67 100 CALM      30.03R
HAMILTON       FAIR      71  62  73 VRB3      30.04R
DAYTON         FAIR      64  61  90 NW7       30.06R
WRIGHT-PAT AFB FAIR      68  61  78 N6        30.04R
DAYTON GENERAL FAIR      71  58  63 N10       30.03S
WILMINGTON     FAIR      69  62  78 N8        30.03R
$$

OHZ036-037-039>041-045>050-054>059-063>069-073>076-082>088-230500-
  CENTRAL AND SOUTHEAST OHIO

CITY           SKY/WX    TMP DP  RH WIND       PRES   REMARKS
COLUMBUS       FAIR      69  60  73 N12       30.01R
OSU AIRPORT    FAIR      67  60  78 NW8       30.02R
BOLTON FIELD   FAIR      67  62  83 N9        30.02S
RICKENBACK AFB FAIR      68  63  83 MISG      30.01R
NEWARK         FAIR      68  63  84 VRB5      30.00R
MARION         MOCLDY    64  60  87 NE10      30.04R
LANCASTER      FAIR      69  64  84 N8        30.01R
ZANESVILLE     MOCLDY    65  63  93 CALM      30.00S
NEW PHILLY     CLOUDY    65  64  97 N5        30.01R
$$




USA.gov is the U.S. government's official web portal to all federal, state and local government web resources and services.